Simultaneous Nadir Overpasses (SNOs) Predictions

Prediction of SNOs between AQUA and GOES-15 Satellite Orbit:

Table of predicted SNOs for the next 14.0 days since TLE Epoch: 5/13/2016
Index Date Time (AQUA) AQUA Lat,Lon GOES-15 Lat,Lon Distance(km) Time Diff (sec)
1 05/14/2016 22:35:27 -0.06,-134.95 -0.05,-134.96 2.29 80
2 05/16/2016 22:23:12 0.57,-131.98 -0.05,-134.90 331.69 80
3 05/17/2016 10:44:27 0.52,-137.14 0.04,-134.89 255.15 80
4 05/19/2016 10:32:12 -0.12,-134.17 0.04,-134.82 74.51 80
5 05/21/2016 10:19:56 -0.70,-131.19 0.04,-134.74 403.49 80
6 05/21/2016 22:41:19 -0.39,-136.38 -0.03,-134.70 190.62 80
7 05/23/2016 22:29:03 0.20,-133.40 -0.03,-134.62 137.63 80
8 05/24/2016 10:50:18 0.88,-138.56 0.02,-134.61 449.30 80
9 05/25/2016 22:16:48 0.87,-130.44 -0.03,-134.52 465.28 80
10 05/26/2016 10:38:02 0.27,-135.58 0.02,-134.51 121.91 80




NCC Satellite Simultaneous Nadir Overpasses (SNOs) Prediction Service
